Location: Courcelles
(49.2596°N, 1.7419°E)
Time: 21:46:18
(UTC+00:00)

Cosmos 2278 Rocket - Pass Details

Date: 17 November 2025
Orbit: 841 x 843 km, 71.0° (Epoch: 05 December)

Event Time Altitude Azimuth Distance (km) Brightness Sun altitude
Rises 19:35:26 0° 252° (WSW) 3,394 6.2 -33.4°
Reaches altitude 10° 19:38:24 10° 267° (W) 2,462 5.4 -33.9°
Maximum altitude 19:42:49 23° 319° (NW) 1,722 4.2 -34.6°
Enters shadow 19:44:36 20° 345° (NNW) 1,863 4.2 -34.9°
